CAPE
4 3 2 2 2 1 1 0 0 1 0 1 2 2 1 0 0 0 0 0 0 342 1 1 89 2 38 70 293 589 262 35 131 293 605 486 908 732 574 594 335 504 606 370 1027
0 1 0 0 1 1 1 1 1 0 0 1 2 2 0 0 0 0 0 455 0 594 0 0 0 0 3 0 67 244 126 79 161 392 513 670 921 794 762 554 721 898 992 927 836
0 0 0 0 0 0 1 1 1 1 1 1 1 1 0 0 0 0 0 316 394 246 0 0 0 0 7 0 0 28 56 41 100 475 417 642 735 646 846 577 741 1041 1260 730 507
0 0 0 0 0 0 0 0 1 0 0 0 1 1 0 0 0 0 0 0 574 13 0 0 0 4 1 0 0 36 28 294 619 576 468 504 405 576 699 589 575 1050 1100 799 424
0 0 0 0 0 0 0 0 0 0 0 0 0 0 0 0 0 0 0 0 3 9 0 0 0 1 12 0 0 11 110 401 544 438 445 324 420 720 789 546 853 1047 967 752 291
0 0 0 0 0 0 0 0 0 0 0 0 0 1 0 0 0 0 0 0 0 14 16 0 0 0 0 0 0 0 178 384 410 510 405 460 609 798 937 887 1038 1084 871 591 115
0 0 0 0 0 0 0 0 0 0 0 0 0 0 0 0 0 0 0 0 0 2 28 0 0 0 0 15 0 0 97 414 420 404 492 510 739 748 952 1047 1044 987 791 580 177
0 0 0 0 0 0 0 0 0 0 0 0 0 0 0 0 0 0 0 0 0 0 11 3 0 0 0 0 6 0 15 44 186 420 551 481 520 1004 915 1121 981 881 757 607 690
0 0 0 0 0 0 0 0 0 0 0 0 0 0 0 0 0 0 0 0 0 0 0 0 0 0 0 14 80 12 55 6 47 316 502 561 481 777 800 1067 915 894 813 723 680
0 0 0 0 0 0 0 0 0 0 0 0 0 0 0 0 0 0 0 0 0 0 0 0 0 0 0 20 91 114 21 1 0 7 397 484 495 831 971 784 968 811 853 822 793
0 0 0 0 0 0 0 0 0 0 0 0 0 0 0 0 0 0 0 0 0 0 0 0 0 0 0 8 21 0 21 2 0 0 94 290 331 376 997 965 800 769 786 795 857
0 0 0 0 0 0 0 0 0 0 0 0 0 0 0 0 0 0 0 0 0 0 0 0 0 0 0 0 0 0 51 41 5 0 0 284 266 342 506 1052 1009 847 738 659 681
0 0 0 0 0 0 0 0 0 0 0 0 0 0 0 0 0 0 0 0 0 0 0 0 0 0 0 0 0 0 40 62 3 0 0 57 271 318 673 757 933 963 839 768 759
0 0 0 0 0 0 0 0 0 0 0 0 0 0 0 0 0 0 0 0 0 0 0 0 0 0 0 0 0 0 16 0 0 0 64 20 236 366 400 786 1120 985 996 853 899
0 0 0 0 0 0 0 0 0 0 0 0 0 0 0 0 0 0 0 0 0 0 0 0 0 0 0 0 0 0 0 0 0 0 28 55 238 306 320 142 336 1270 969 917 971
0 0 0 0 0 0 0 0 0 0 0 0 0 0 0 0 0 0 0 0 0 0 0 0 0 0 0 0 0 0 0 0 0 7 54 46 278 302 378 149 96 515 857 950 822
0 0 0 0 0 0 0 0 0 0 0 0 0 0 0 0 0 0 0 0 0 0 0 0 0 0 0 0 0 0 0 0 0 47 85 122 251 286 243 162 96 99 455 972 1018
0 0 0 0 0 0 0 0 0 0 0 0 0 0 0 0 0 0 0 0 0 0 0 0 0 0 0 0 0 0 0 0 0 16 238 207 161 262 129 56 125 119 358 961 1139
0 0 0 0 0 0 0 0 0 0 0 0 0 0 0 0 0 0 0 0 0 0 0 0 0 0 0 0 0 0 0 0 0 50 164 183 125 238 67 48 91 152 112 744 969
0 0 0 0 0 0 0 0 0 0 0 0 0 0 0 0 0 0 0 0 0 0 0 0 0 0 0 0 0 0 0 0 0 14 92 127 117 201 89 24 53 59 148 217 801
0 0 0 0 0 0 0 0 0 0 0 0 0 0 0 0 0 0 0 0 0 0 0 0 0 0 0 0 0 0 0 0 3 35 118 260 228 132 27 29 62 31 309 426 435
0 0 0 0 0 0 0 0 0 0 0 0 0 0 0 0 0 0 0 0 0 0 0 0 0 0 0 0 0 0 0 0 3 15 30 18 109 51 0 2 11 172 360 777 714
0 0 0 0 0 0 0 0 0 0 0 0 0 0 0 0 0 0 0 0 0 0 0 0 0 0 0 0 0 0 0 0 0 6 11 62 95 20 0 0 32 536 399 924 1289
0 0 0 0 0 0 0 0 0 0 0 0 0 0 0 0 0 0 0 1 3 17 0 0 0 0 0 0 0 0 0 0 0 2 8 43 59 26 12 32 76 351 589 794 1759
0 0 0 0 0 0 0 0 0 0 0 0 0 0 0 0 0 0 0 0 0 15 0 0 12 0 0 0 0 0 0 0 0 0 23 53 87 30 57 197 413 507 689 1052 1762
0 0 0 0 0 0 0 0 0 0 0 0 0 0 0 1 98 1 0 0 3 61 57 16 51 50 41 2 0 0 0 0 0 0 2 4 0 0 35 262 512 807 949 1267 2063
0 0 0 0 0 0 0 0 0 0 0 0 0 42 59 112 4 121 143 93 100 209 47 36 21 36 37 61 31 1 0 0 0 1 0 1 1 0 0 17 778 979 1101 1360 2123
CIN
0 0 0 0 0 0 0 0 0 0 0 0 0 0 0 0 0 0 0 0 0 -676 -1 -79 -264 -36 -238 -126 -89 -56 -3 -1 -23 -2 -10 -68 -30 -45 -57 -42 -45 -35 -12 -41 -69
0 0 0 0 0 0 0 0 0 0 0 0 0 0 0 0 0 0 0 -549 0 -596 0 0 0 0 -50 0 -75 -11 -10 -53 -28 -15 -12 -42 -31 -46 -42 -52 -45 -27 -22 -57 -67
0 0 0 0 0 0 0 0 0 0 0 0 0 0 0 0 0 0 0 -635 -646 -224 0 0 0 0 -13 0 0 -20 -12 -18 -53 -40 -26 -32 -36 -48 -34 -29 -27 -32 -39 -73 -79
0 0 0 0 0 0 0 0 0 0 0 0 0 0 0 0 0 0 0 0 -625 -336 0 0 0 -10 0 0 0 -13 -30 -37 -65 -87 -53 -28 -54 -35 -39 -52 -52 -50 -58 -72 -75
0 0 0 0 0 0 0 0 0 0 0 0 0 0 0 0 0 0 0 0 -236 -299 0 0 0 -1 -4 0 0 -20 -37 -39 -80 -83 -51 -81 -55 -32 -49 -74 -64 -80 -72 -62 -75
0 0 0 0 0 0 0 0 0 0 0 0 0 0 0 0 0 0 0 0 -164 -274 -231 0 0 0 0 0 0 0 -24 -40 -56 -63 -82 -59 -54 -35 -49 -78 -79 -81 -81 -62 -88
0 0 0 0 0 0 0 0 0 0 0 0 0 0 0 0 0 0 0 0 0 -225 -194 0 0 0 0 0 0 0 -3 -15 -33 -48 -42 -60 -55 -31 -68 -76 -79 -81 -84 -71 -82
0 0 0 0 0 0 0 0 0 0 0 0 0 0 0 0 0 0 0 0 0 0 -238 -239 0 0 0 0 -28 0 -36 -7 -28 -37 -63 -51 -1 -36 -86 -61 -59 -76 -87 -78 -34
0 0 0 0 0 0 0 0 0 0 0 0 0 0 0 0 0 0 0 0 0 0 0 -104 0 0 0 -34 -29 -16 -10 0 -6 -34 -24 -25 -1 -57 -100 -59 -54 -56 -72 -80 -49
0 0 0 0 0 0 0 0 0 0 0 0 0 0 0 0 0 0 0 0 0 0 0 0 0 0 0 -23 -4 -5 -2 0 0 -6 -29 -11 -3 -26 -95 -72 -56 -58 -65 -71 -62
0 0 0 0 0 0 0 0 0 0 0 0 0 0 0 0 0 0 0 0 0 0 0 0 0 0 0 0 -1 0 -34 0 0 0 -37 -13 -4 -8 -42 -77 -73 -56 -82 -71 -62
0 0 0 0 0 0 0 0 0 0 0 0 0 0 0 0 0 0 0 0 0 0 0 0 0 0 0 0 0 0 -21 -37 -21 0 0 -14 -7 -7 -19 -63 -75 -68 -72 -93 -90
0 0 0 0 0 0 0 0 0 0 0 0 0 0 0 0 0 0 0 0 0 0 0 0 0 0 0 0 0 0 -18 -14 0 0 0 -55 -7 -9 -36 -73 -88 -84 -77 -75 -88
0 0 0 0 0 0 0 0 0 0 0 0 0 0 0 0 0 0 0 0 0 0 0 0 0 0 0 0 0 0 0 0 0 0 -20 -72 0 -1 -13 -33 -81 -74 -83 -56 -91
0 0 0 0 0 0 0 0 0 0 0 0 0 0 0 0 0 0 0 0 0 0 0 0 0 0 0 0 0 0 0 0 0 0 -35 -26 -4 0 -11 -4 -2 -39 -68 -74 -64
0 0 0 0 0 0 0 0 0 0 0 0 0 0 0 0 0 0 0 0 0 0 0 0 0 0 0 0 0 0 0 0 0 -10 -18 -24 0 0 0 -7 -7 -17 -43 -65 -79
0 0 0 0 0 0 0 0 0 0 0 0 0 0 0 0 0 0 0 0 0 0 0 0 0 0 0 0 0 0 0 0 0 -9 -13 0 -6 0 -2 -1 -14 -21 -23 -53 -59
0 0 0 0 0 0 0 0 0 0 0 0 0 0 0 0 0 0 0 0 0 0 0 0 0 0 0 0 0 0 0 0 0 -9 0 -4 -23 -4 -12 -29 -24 -30 -33 -52 -41
0 0 0 0 0 0 0 0 0 0 0 0 0 0 0 0 0 0 0 0 0 0 0 0 0 0 0 0 0 0 0 0 0 0 0 0 -4 -32 -19 -18 -3 -6 -17 -32 -44
0 0 0 0 0 0 0 0 0 0 0 0 0 0 0 0 0 0 0 0 0 0 0 0 0 0 0 0 0 0 0 0 0 -6 0 0 -5 -3 -2 -20 -2 -1 -7 -11 -33
0 0 0 0 0 0 0 0 0 0 0 0 0 0 0 0 0 0 0 0 0 0 0 0 0 0 0 0 0 0 0 0 0 0 0 0 0 0 -25 -34 -6 -12 -9 -14 -26
0 0 0 0 0 0 0 0 0 0 0 0 0 0 0 0 0 0 0 0 0 0 0 0 0 0 0 0 0 0 0 0 0 -7 -8 -4 0 -12 -1 -38 -26 -10 -21 -34 -62
0 0 0 0 0 0 0 0 0 0 0 0 0 0 0 0 0 0 0 0 0 0 0 0 0 0 0 0 0 0 0 0 0 0 0 0 -4 -15 0 0 -38 -21 -25 -38 -92
0 0 0 0 0 0 0 0 0 0 0 0 0 0 0 0 0 0 0 -10 -34 -61 0 0 0 0 0 0 0 0 0 0 0 0 0 0 -8 -24 -9 -20 -12 -23 -47 -47 -99
0 0 0 0 0 0 0 0 0 0 0 0 0 0 0 0 0 0 0 0 0 -15 0 0 0 0 0 0 0 0 0 0 0 0 0 0 0 -30 -7 -2 -8 -71 -90 -97 -98
0 0 0 0 0 0 0 0 0 0 0 0 0 0 0 -1 -51 -1 -1 0 -4 -30 -15 -16 -2 -13 -2 -1 0 0 0 0 0 0 0 0 0 0 -11 -8 -24 -57 -114 -98 -106
0 0 0 0 0 0 0 0 0 0 0 0 0 -94 -78 -82 -54 -108 -70 -66 -57 -29 -12 -17 0 0 0 -2 -4 0 0 0 0 0 0 0 0 0 0 -6 -36 -107 -102 -78 -103
Wind_Speed
nan nan nan nan nan nan nan nan nan nan nan nan nan nan nan nan nan nan nan nan nan 11 nan nan nan nan nan nan 17 11 17 nan 9 9 9 20 21 20 17 21 17 10 12 16 20
nan nan nan nan nan nan nan nan nan nan nan nan nan nan nan nan nan nan nan 9 nan 6 nan nan nan nan nan nan nan 13 12 nan 14 10 15 22 22 21 24 22 19 16 13 22 23
nan nan nan nan nan nan nan nan nan nan nan nan nan nan nan nan nan nan nan 8 5 8 nan nan nan nan nan nan nan nan nan nan 11 10 16 18 20 21 20 28 23 22 25 28 26
nan nan nan nan nan nan nan nan nan nan nan nan nan nan nan nan nan nan nan nan 4 nan nan nan nan nan nan nan nan nan nan 12 6 7 10 15 16 21 21 14 20 24 29 29 29
nan nan nan nan nan nan nan nan nan nan nan nan nan nan nan nan nan nan nan nan nan nan nan nan nan nan nan nan nan nan 16 9 2 3 5 10 14 14 17 12 18 26 30 29 29
nan nan nan nan nan nan nan nan nan nan nan nan nan nan nan nan nan nan nan nan nan nan nan nan nan nan nan nan nan nan 11 7 4 1 3 7 13 17 16 18 23 29 29 30 31
nan nan nan nan nan nan nan nan nan nan nan nan nan nan nan nan nan nan nan nan nan nan nan nan nan nan nan nan nan nan nan 2 6 3 2 5 12 15 20 23 26 29 29 29 31
nan nan nan nan nan nan nan nan nan nan nan nan nan nan nan nan nan nan nan nan nan nan nan nan nan nan nan nan nan nan nan nan 10 7 6 6 5 12 21 26 29 30 32 29 32
nan nan nan nan nan nan nan nan nan nan nan nan nan nan nan nan nan nan nan nan nan nan nan nan nan nan nan nan nan nan nan nan nan 9 9 6 8 9 19 26 28 31 32 29 30
nan nan nan nan nan nan nan nan nan nan nan nan nan nan nan nan nan nan nan nan nan nan nan nan nan nan nan nan nan 15 nan nan nan nan 7 10 6 12 14 22 27 31 32 31 28
nan nan nan nan nan nan nan nan nan nan nan nan nan nan nan nan nan nan nan nan nan nan nan nan nan nan nan nan nan nan nan nan nan nan nan 7 4 7 11 15 21 27 33 34 29
nan nan nan nan nan nan nan nan nan nan nan nan nan nan nan nan nan nan nan nan nan nan nan nan nan nan nan nan nan nan nan nan nan nan nan 10 11 13 5 11 19 25 31 34 28
nan nan nan nan nan nan nan nan nan nan nan nan nan nan nan nan nan nan nan nan nan nan nan nan nan nan nan nan nan nan nan nan nan nan nan nan 12 9 12 4 10 17 27 31 29
nan nan nan nan nan nan nan nan nan nan nan nan nan nan nan nan nan nan nan nan nan nan nan nan nan nan nan nan nan nan nan nan nan nan nan nan 13 9 16 16 13 17 26 28 26
nan nan nan nan nan nan nan nan nan nan nan nan nan nan nan nan nan nan nan nan nan nan nan nan nan nan nan nan nan nan nan nan nan nan nan nan 5 6 17 8 15 15 20 23 27
nan nan nan nan nan nan nan nan nan nan nan nan nan nan nan nan nan nan nan nan nan nan nan nan nan nan nan nan nan nan nan nan nan nan nan nan 10 5 6 10 nan 16 13 20 24
nan nan nan nan nan nan nan nan nan nan nan nan nan nan nan nan nan nan nan nan nan nan nan nan nan nan nan nan nan nan nan nan nan nan nan 12 12 4 16 6 nan nan 17 14 22
nan nan nan nan nan nan nan nan nan nan nan nan nan nan nan nan nan nan nan nan nan nan nan nan nan nan nan nan nan nan nan nan nan nan 2 30 13 2 14 nan 12 10 13 12 15
nan nan nan nan nan nan nan nan nan nan nan nan nan nan nan nan nan nan nan nan nan nan nan nan nan nan nan nan nan nan nan nan nan nan 17 15 15 5 nan nan nan 4 12 14 14
nan nan nan nan nan nan nan nan nan nan nan nan nan nan nan nan nan nan nan nan nan nan nan nan nan nan nan nan nan nan nan nan nan nan nan 4 12 6 nan nan nan nan 13 16 19
nan nan nan nan nan nan nan nan nan nan nan nan nan nan nan nan nan nan nan nan nan nan nan nan nan nan nan nan nan nan nan nan nan nan 7 6 8 12 nan nan nan nan 16 9 15
nan nan nan nan nan nan nan nan nan nan nan nan nan nan nan nan nan nan nan nan nan nan nan nan nan nan nan nan nan nan nan nan nan nan nan nan 17 nan nan nan nan 15 20 11 11
nan nan nan nan nan nan nan nan nan nan nan nan nan nan nan nan nan nan nan nan nan nan nan nan nan nan nan nan nan nan nan nan nan nan nan nan nan nan nan nan nan 15 17 14 11
nan nan nan nan nan nan nan nan nan nan nan nan nan nan nan nan nan nan nan nan nan nan nan nan nan nan nan nan nan nan nan nan nan nan nan nan nan nan nan nan nan 18 14 12 15
nan nan nan nan nan nan nan nan nan nan nan nan nan nan nan nan nan nan nan nan nan nan nan nan nan nan nan nan nan nan nan nan nan nan nan nan nan nan nan 10 22 28 20 15 19
nan nan nan nan nan nan nan nan nan nan nan nan nan nan nan nan nan nan nan nan nan nan nan nan nan nan nan nan nan nan nan nan nan nan nan nan nan nan nan 4 18 31 25 20 27
nan nan nan nan nan nan nan nan nan nan nan nan nan nan nan 26 nan 19 15 nan 21 18 nan nan nan nan nan nan nan nan nan nan nan nan nan nan nan nan nan nan 20 27 19 21 27
Wind_Direction
nan nan nan nan nan nan nan nan nan nan nan nan nan nan nan nan nan nan nan nan nan 338 nan nan nan nan nan nan 77 75 79 nan 123 94 43 38 34 35 38 11 38 51 46 346 351
nan nan nan nan nan nan nan nan nan nan nan nan nan nan nan nan nan nan nan 208 nan 359 nan nan nan nan nan nan nan 89 118 nan 111 78 58 41 51 32 35 21 24 16 353 340 355
nan nan nan nan nan nan nan nan nan nan nan nan nan nan nan nan nan nan nan 199 67 22 nan nan nan nan nan nan nan nan nan nan 131 92 59 35 42 48 41 39 33 14 357 356 355
nan nan nan nan nan nan nan nan nan nan nan nan nan nan nan nan nan nan nan nan 357 nan nan nan nan nan nan nan nan nan nan 150 143 71 63 39 24 37 49 62 41 12 5 1 3
nan nan nan nan nan nan nan nan nan nan nan nan nan nan nan nan nan nan nan nan nan nan nan nan nan nan nan nan nan nan 161 174 164 86 48 33 29 26 23 26 1 3 6 9 11
nan nan nan nan nan nan nan nan nan nan nan nan nan nan nan nan nan nan nan nan nan nan nan nan nan nan nan nan nan nan 145 200 183 169 15 46 31 29 10 0 2 4 6 9 13
nan nan nan nan nan nan nan nan nan nan nan nan nan nan nan nan nan nan nan nan nan nan nan nan nan nan nan nan nan nan nan 345 196 176 168 66 34 28 351 356 1 11 9 9 11
nan nan nan nan nan nan nan nan nan nan nan nan nan nan nan nan nan nan nan nan nan nan nan nan nan nan nan nan nan nan nan nan 225 176 216 83 295 335 1 358 353 4 10 10 12
nan nan nan nan nan nan nan nan nan nan nan nan nan nan nan nan nan nan nan nan nan nan nan nan nan nan nan nan nan nan nan nan nan 182 172 123 183 322 8 12 359 2 8 11 15
nan nan nan nan nan nan nan nan nan nan nan nan nan nan nan nan nan nan nan nan nan nan nan nan nan nan nan nan nan 263 nan nan nan nan 144 137 128 323 14 23 13 4 7 13 17
nan nan nan nan nan nan nan nan nan nan nan nan nan nan nan nan nan nan nan nan nan nan nan nan nan nan nan nan nan nan nan nan nan nan nan 156 174 191 332 23 17 10 7 12 20
nan nan nan nan nan nan nan nan nan nan nan nan nan nan nan nan nan nan nan nan nan nan nan nan nan nan nan nan nan nan nan nan nan nan nan 192 163 227 285 3 17 11 5 12 18
nan nan nan nan nan nan nan nan nan nan nan nan nan nan nan nan nan nan nan nan nan nan nan nan nan nan nan nan nan nan nan nan nan nan nan nan 120 297 266 335 13 14 18 10 15
nan nan nan nan nan nan nan nan nan nan nan nan nan nan nan nan nan nan nan nan nan nan nan nan nan nan nan nan nan nan nan nan nan nan nan nan 157 280 276 309 324 352 11 11 6
nan nan nan nan nan nan nan nan nan nan nan nan nan nan nan nan nan nan nan nan nan nan nan nan nan nan nan nan nan nan nan nan nan nan nan nan 207 170 286 281 304 321 354 3 0
nan nan nan nan nan nan nan nan nan nan nan nan nan nan nan nan nan nan nan nan nan nan nan nan nan nan nan nan nan nan nan nan nan nan nan nan 254 145 279 264 nan 285 316 350 351
nan nan nan nan nan nan nan nan nan nan nan nan nan nan nan nan nan nan nan nan nan nan nan nan nan nan nan nan nan nan nan nan nan nan nan 249 264 174 192 226 nan nan 291 323 344
nan nan nan nan nan nan nan nan nan nan nan nan nan nan nan nan nan nan nan nan nan nan nan nan nan nan nan nan nan nan nan nan nan nan 333 268 269 268 238 nan 275 265 295 297 332
nan nan nan nan nan nan nan nan nan nan nan nan nan nan nan nan nan nan nan nan nan nan nan nan nan nan nan nan nan nan nan nan nan nan 201 225 292 250 nan nan nan 273 290 299 293
nan nan nan nan nan nan nan nan nan nan nan nan nan nan nan nan nan nan nan nan nan nan nan nan nan nan nan nan nan nan nan nan nan nan nan 263 290 219 nan nan nan nan 258 302 284
nan nan nan nan nan nan nan nan nan nan nan nan nan nan nan nan nan nan nan nan nan nan nan nan nan nan nan nan nan nan nan nan nan nan 206 274 289 268 nan nan nan nan 256 266 273
nan nan nan nan nan nan nan nan nan nan nan nan nan nan nan nan nan nan nan nan nan nan nan nan nan nan nan nan nan nan nan nan nan nan nan nan 204 nan nan nan nan 206 251 233 227
nan nan nan nan nan nan nan nan nan nan nan nan nan nan nan nan nan nan nan nan nan nan nan nan nan nan nan nan nan nan nan nan nan nan nan nan nan nan nan nan nan 208 232 258 276
nan nan nan nan nan nan nan nan nan nan nan nan nan nan nan nan nan nan nan nan nan nan nan nan nan nan nan nan nan nan nan nan nan nan nan nan nan nan nan nan nan 219 241 261 277
nan nan nan nan nan nan nan nan nan nan nan nan nan nan nan nan nan nan nan nan nan nan nan nan nan nan nan nan nan nan nan nan nan nan nan nan nan nan nan 187 206 215 216 270 278
nan nan nan nan nan nan nan nan nan nan nan nan nan nan nan nan nan nan nan nan nan nan nan nan nan nan nan nan nan nan nan nan nan nan nan nan nan nan nan 196 201 211 237 275 282
nan nan nan nan nan nan nan nan nan nan nan nan nan nan nan 229 nan 196 203 nan 232 227 nan nan nan nan nan nan nan nan nan nan nan nan nan nan nan nan nan nan 202 203 223 273 288